Location: Brabourne
(51.1333°N, 1.0000°E)
Time: 05:12:01
(UTC+00:00)

NOSS 3-1 (A) - Pass Details

Date: 26 October 2021
Orbit: 721 x 1491 km, 63.4° (Epoch: 22 November)

Event Time Altitude Azimuth Distance (km) Brightness Sun altitude
Exits shadow 02:37:34 12° 153° (SSE) 3,350 6.2 -37.3°
Drops below altitude 10° 02:38:05 10° 153° (SSE) 3,520 6.3 -37.2°
Sets 02:41:11 0° 151° (SSE) 4,550 7.0 -36.8°
